This is the latest recevied weather packets stored in our database for station/object HB9FHL-13. If no packets are shown the sender has not sent any weather packets the latest 1 day(s).
| Time | Temp. | Humidity | Pressure | Rain* | Wind** | Luminosity | Snow |
|---|---|---|---|---|---|---|---|
| 1778018859 | 12.78° C | - | 1010.6 hPa | 0 mm | 1.34 m/s, 238° | - | - |
| 1778018556 | 12.22° C | - | 1010 hPa | 0 mm | 1.79 m/s, 221° | - | - |
| 1778018256 | 12.78° C | - | 1006.4 hPa | 0 mm | 1.34 m/s, 246° | - | - |
| 1778017955 | 12.78° C | - | 1009.6 hPa | 0 mm | 1.79 m/s, 238° | - | - |
| 1778017655 | 13.33° C | - | 1009.6 hPa | 0 mm | 1.79 m/s, 243° | - | - |
| 1778017354 | 12.22° C | - | 1007.1 hPa | 0 mm | 1.79 m/s, 231° | - | - |
| 1778017059 | 12.78° C | - | 1009.8 hPa | 0 mm | 1.79 m/s, 236° | - | - |
| 1778016753 | 13.89° C | - | 1008.3 hPa | 0 mm | 1.79 m/s, 231° | - | - |
| 1778016453 | 12.78° C | - | 1005.9 hPa | 0 mm | 2.24 m/s, 245° | - | - |
| 1778016152 | 12.78° C | - | 1009.1 hPa | 0 mm | 2.24 m/s, 233° | - | - |
| 1778015852 | 12.22° C | - | 1011.8 hPa | 0 mm | 2.24 m/s, 221° | - | - |
| 1778015550 | 12.78° C | - | 1010.5 hPa | 0 mm | 3.13 m/s, 214° | - | - |
| 1778015249 | 13.89° C | - | 1006.2 hPa | 0 mm | 2.68 m/s, 231° | - | - |
| 1778014945 | 13.89° C | - | 1009.8 hPa | 0 mm | 3.58 m/s, 232° | - | - |
| 1778014645 | 13.33° C | - | 1002.9 hPa | 0 mm | 3.13 m/s, 231° | - | - |
| 1778014344 | 13.33° C | - | 1007.4 hPa | 0 mm | 2.68 m/s, 232° | - | - |
| 1778013739 | 12.78° C | - | 1006.6 hPa | 0 mm | 2.68 m/s, 252° | - | - |
| 1778013439 | 12.78° C | - | 1007.8 hPa | 0 mm | 2.68 m/s, 222° | - | - |
| 1778013138 | 12.78° C | - | 1010.6 hPa | 0 mm | 3.13 m/s, 242° | - | - |
| 1778012537 | 12.78° C | - | 1011.7 hPa | 0 mm | 3.13 m/s, 235° | - | - |
| 1778012236 | 12.22° C | - | 1007.7 hPa | 0 mm | 2.68 m/s, 215° | - | - |
| 1778011936 | 12.22° C | - | 1004.2 hPa | 0 mm | 2.68 m/s, 231° | - | - |
| 1778011635 | 12.78° C | - | 1008 hPa | 0 mm | 2.24 m/s, 229° | - | - |
| 1778011335 | 12.78° C | - | 1012.6 hPa | 0 mm | 2.24 m/s, 222° | - | - |
| 1778011317 | 12.78° C | - | 1009.5 hPa | 0 mm | 3.13 m/s, 243° | - | - |
* Rain since midnight (hover to see other rain measurements)
** Current wind speed in m/s (hover to see current wind gust speed)